This demonstration page uses our WeatherBlox Daily Observations layout. Learn more.

Left ArrowRight Arrow

Hourly Observations for November 11, 2019

Temp ( °F °C ) Dew Point ( °F °C ) Humidity (%) Winds ( mph kmh ) Pressure ( in mb ) Visibility ( mi km ) Precip ( " mm )
12:15 am 00:15 Clear 37 3 36 2 93 93 N 3 6 30.07 1018 10 16.0934 0 0
12:35 am 00:35 Clear 37 3 36 2 93 93 Calm 30.07 1018 10 16.0934 0 0
12:55 am 00:55 Clear 36 2 36 2 100 100 Calm 30.08 1019 10 16.0934 0 0
1:15 am 01:15 Clear 34 1 34 1 100 100 Calm 30.07 1018 10 16.0934 0 0
1:35 am 01:35 Clear 34 1 34 1 100 100 Calm 30.07 1018 10 16.0934 0 0
1:55 am 01:55 Clear 34 1 34 1 100 100 Calm 30.07 1018 10 16.0934 0 0
2:15 am 02:15 Clear 36 2 36 2 100 100 Calm 30.08 1019 10 16.0934 0 0
2:35 am 02:35 Clear 34 1 32 0 93 93 Calm 30.08 1019 10 16.0934 0 0
2:55 am 02:55 Clear 32 0 32 0 100 100 Calm 30.08 1019 10 16.0934 0 0
3:15 am 03:15 Clear 32 0 32 0 100 100 Calm 30.08 1019 10 16.0934 0 0
3:35 am 03:35 Clear 32 0 32 0 100 100 NW 3 6 30.08 1019 10 16.0934 0 0
3:55 am 03:55 Clear 34 1 34 1 100 100 Calm 30.08 1019 10 16.0934 0 0
4:15 am 04:15 Clear 34 1 34 1 100 100 Calm 30.08 1019 10 16.0934 0 0
4:35 am 04:35 Clear 32 0 32 0 100 100 Calm 30.08 1019 10 16.0934 0 0
4:55 am 04:55 Clear 32 0 32 0 100 100 Calm 30.09 1019 10 16.0934 0 0
5:15 am 05:15 Clear 32 0 32 0 100 100 Calm 30.1 1019 10 16.0934 0 0
5:35 am 05:35 Clear 32 0 32 0 100 100 Calm 30.1 1019 10 16.0934 0 0
5:55 am 05:55 Clear 34 1 34 1 100 100 Calm 30.1 1019 10 16.0934 0 0
6:15 am 06:15 Clear 34 1 34 1 100 100 Calm 30.1 1019 10 16.0934 0 0
6:35 am 06:35 Clear 32 0 32 0 100 100 Calm 30.1 1019 10 16.0934 0 0
6:55 am 06:55 Sunny 32 0 32 0 100 100 Calm 30.11 1020 10 16.0934 0 0
7:15 am 07:15 Sunny 32 0 32 0 100 100 Calm 30.11 1020 7 11.26538 0 0
7:35 am 07:35 Sunny 34 1 34 1 100 100 Calm 30.12 1020 10 16.0934 0 0
7:55 am 07:55 Sunny 34 1 34 1 100 100 Calm 30.12 1020 10 16.0934 0 0
8:15 am 08:15 Sunny 37 3 36 2 93 93 Calm 30.12 1020 10 16.0934 0 0
8:35 am 08:35 Sunny 41 5 37 3 87 87 Calm 30.11 1020 10 16.0934 0 0
8:55 am 08:55 Sunny 43 6 39 4 87 87 Calm 30.11 1020 10 16.0934 0 0
9:15 am 09:15 Sunny 45 7 41 5 87 87 Calm 30.1 1019 10 16.0934 0 0
9:35 am 09:35 Sunny 48 9 41 5 76 76 Calm 30.09 1019 10 16.0934 0 0
9:55 am 09:55 Sunny 50 10 41 5 71 71 SE 5 7 30.09 1019 10 16.0934 0 0
10:15 am 10:15 Sunny 50 10 41 5 71 71 ESE 3 6 30.08 1018 10 16.0934 0 0
10:55 am 10:55 Sunny 55 13 43 6 63 63 Calm 30.07 1018 10 16.0934 0 0
11:15 am 11:15 Sunny 59 15 43 6 55 55 Calm 30.06 1018 10 16.0934 0 0
11:35 am 11:35 Sunny 61 16 43 6 52 52 Calm 30.06 1018 10 16.0934 0 0
11:55 am 11:55 Sunny 63 17 43 6 49 49 ESE 5 7 30.04 1017 10 16.0934 0 0
12:15 pm 12:15 Sunny 63 17 43 6 49 49 SE 3 6 30.02 1016 10 16.0934 0 0
12:35 pm 12:35 Sunny 64 18 39 4 40 40 S 10 17 30 1016 10 16.0934 0 0
12:55 pm 12:55 Sunny 66 19 39 4 37 37 SSE 9 15 29.98 1015 10 16.0934 0 0
1:15 pm 13:15 Sunny 66 19 41 5 40 40 S 7 11 29.97 1015 10 16.0934 0 0
1:35 pm 13:35 Sunny 68 20 39 4 35 35 SSE 9 15 29.96 1015 10 16.0934 0 0
1:55 pm 13:55 Sunny 68 20 41 5 38 38 SSE 10 17 29.95 1014 10 16.0934 0 0
2:15 pm 14:15 Sunny 68 20 41 5 38 38 S 10 17 29.94 1014 10 16.0934 0 0
2:35 pm 14:35 Sunny 68 20 41 5 38 38 SSE 9 15 29.93 1014 10 16.0934 0 0
2:55 pm 14:55 Sunny 68 20 41 5 38 38 S 13 20 29.92 1013 10 16.0934 0 0
3:15 pm 15:15 Sunny 66 19 41 5 40 40 S 12 19 29.92 1013 10 16.0934 0 0
3:35 pm 15:35 Sunny 66 19 41 5 40 40 S 7 11 29.91 1013 10 16.0934 0 0
3:55 pm 15:55 Sunny 66 19 43 6 43 43 SSE 9 15 29.91 1013 10 16.0934 0 0
4:15 pm 16:15 Sunny 64 18 43 6 46 46 SE 10 17 29.89 1012 10 16.0934 0 0
4:35 pm 16:35 Sunny 64 18 43 6 46 46 SSE 10 17 29.88 1012 10 16.0934 0 0
4:55 pm 16:55 Sunny 63 17 43 6 49 49 SSE 13 20 29.88 1012 10 16.0934 0 0
5:15 pm 17:15 Clear 63 17 45 7 52 52 S 13 20 29.87 1011 10 16.0934 0 0
5:35 pm 17:35 Clear 61 16 45 7 55 55 S 13 20 29.88 1012 10 16.0934 0 0
5:55 pm 17:55 Clear 59 15 45 7 59 59 S 8 13 29.88 1012 10 16.0934 0 0
6:15 pm 18:15 Clear 59 15 45 7 59 59 S 8 13 29.88 1012 10 16.0934 0 0
6:35 pm 18:35 Clear 59 15 45 7 59 59 SSE 8 13 29.88 1012 10 16.0934 0 0
6:55 pm 18:55 Clear 59 15 45 7 59 59 S 8 13 29.87 1011 10 16.0934 0 0
7:15 pm 19:15 Clear 57 14 45 7 63 63 S 7 11 29.86 1011 10 16.0934 0 0
7:35 pm 19:35 Clear 55 13 45 7 67 67 S 5 7 29.87 1012 10 16.0934 0 0
7:55 pm 19:55 Clear 55 13 45 7 67 67 S 7 11 29.86 1011 10 16.0934 0 0
8:15 pm 20:15 Clear 55 13 45 7 67 67 S 7 11 29.86 1011 10 16.0934 0 0
8:35 pm 20:35 Clear 55 13 43 6 63 63 S 8 13 29.86 1011 10 16.0934 0 0
8:55 pm 20:55 Clear 55 13 43 6 63 63 S 10 17 29.85 1011 10 16.0934 0 0
9:15 pm 21:15 Clear 55 13 43 6 63 63 S 12 19 29.85 1011 10 16.0934 0 0
9:35 pm 21:35 Clear 57 14 43 6 59 59 SSW 10 17 29.84 1011 10 16.0934 0 0
9:55 pm 21:55 Clear 57 14 43 6 59 59 S 10 17 29.83 1010 10 16.0934 0 0
10:15 pm 22:15 Clear 57 14 43 6 59 59 SSW 10 17 29.83 1010 10 16.0934 0 0
10:35 pm 22:35 Clear 59 15 43 6 55 55 SSW 8 13 29.82 1010 10 16.0934 0 0
10:55 pm 22:55 Clear 59 15 43 6 55 55 SSW 7 11 29.81 1009 10 16.0934 0 0
11:15 pm 23:15 Clear 59 15 43 6 55 55 SW 7 11 29.8 1009 10 16.0934 0 0
11:35 pm 23:35 Clear 59 15 43 6 55 55 SW 9 15 29.8 1009 10 16.0934 0 0
11:55 pm 23:55 Clear 59 15 43 6 55 55 SW 8 13 29.79 1009 10 16.0934 0 0

Powered by AerisWeather